When you browse on this site, cookies collect data to enhance your experience and personalize the content and advertising you see.
Visit our Privacy Policy to learn more. By continuing to use the site, you agree to this use of cookies and data.
  • In Denmark
  • List of Countries
  • For 7 days
  • Water Temperature
  • Weather Map
  • Weather Widgets
  • user-avatar
    Login

    Hourly Weather Winnica

    Today, 16 October, Wednesday

    Time Temperature Precipitation Wind Pressure Humidity
    00:00 +14°C° 0 mm 3 mps 741 mmHg 83%
    01:00 +14°C° 0 mm 3 mps 741 mmHg 85%
    02:00 +14°C° 0 mm 4 mps 741 mmHg 85%
    03:00 +14°C° 0 mm 4 mps 741 mmHg 85%
    04:00 +14°C° 0 mm 4 mps 741 mmHg 84%
    05:00 +14°C° 0 mm 4 mps 742 mmHg 82%
    06:00 +14°C° 0 mm 5 mps 742 mmHg 80%
    07:00 +14°C° 0 mm 6 mps 743 mmHg 78%
    08:00 +14°C° 0 mm 6 mps 744 mmHg 77%
    09:00 +14°C° 0 mm 6 mps 744 mmHg 76%
    10:00 +14°C° 0 mm 6 mps 745 mmHg 75%
    11:00 +15°C° 0 mm 6 mps 745 mmHg 70%
    12:00 +16°C° 0 mm 6 mps 746 mmHg 65%
    13:00 +16°C° 0 mm 6 mps 746 mmHg 59%
    14:00 +16°C° 0 mm 6 mps 746 mmHg 60%
    15:00 +15°C° 0 mm 5 mps 746 mmHg 61%
    16:00 +15°C° 0 mm 5 mps 746 mmHg 61%
    17:00 +14°C° 0 mm 5 mps 746 mmHg 63%
    18:00 +13°C° 0 mm 4 mps 746 mmHg 66%
    19:00 +12°C° 0 mm 4 mps 747 mmHg 68%
    20:00 +12°C° 0 mm 4 mps 747 mmHg 67%
    21:00 +12°C° 0 mm 4 mps 747 mmHg 66%
    22:00 +13°C° 0 mm 4 mps 747 mmHg 65%
    23:00 +13°C° 0 mm 4 mps 748 mmHg 64%

    Tomorrow, 17 October, Thursday

    Time Temperature Precipitation Wind Pressure Humidity
    00:00 +13°C° 0 mm 4 mps 748 mmHg 63%
    01:00 +13°C° 0 mm 4 mps 748 mmHg 62%
    02:00 +13°C° 0 mm 4 mps 748 mmHg 62%
    03:00 +12°C° 0 mm 4 mps 748 mmHg 63%
    04:00 +12°C° 0 mm 3 mps 748 mmHg 63%
    05:00 +12°C° 0 mm 3 mps 748 mmHg 64%
    06:00 +12°C° 0 mm 3 mps 748 mmHg 64%
    07:00 +12°C° 0 mm 3 mps 748 mmHg 64%
    08:00 +14°C° 0 mm 3 mps 748 mmHg 59%
    09:00 +16°C° 0 mm 3 mps 748 mmHg 54%
    10:00 +18°C° 0 mm 3 mps 748 mmHg 49%
    11:00 +19°C° 0 mm 2 mps 748 mmHg 47%
    12:00 +20°C° 0 mm 2 mps 748 mmHg 46%
    13:00 +21°C° 0 mm 2 mps 748 mmHg 44%
    14:00 +20°C° 0 mm 2 mps 748 mmHg 49%
    15:00 +19°C° 0 mm 2 mps 748 mmHg 55%
    16:00 +18°C° 0 mm 2 mps 748 mmHg 60%
    17:00 +17°C° 0 mm 2 mps 748 mmHg 63%
    18:00 +16°C° 0 mm 1 mps 748 mmHg 65%
    19:00 +15°C° 0 mm 1 mps 748 mmHg 68%
    20:00 +15°C° 0 mm 1 mps 748 mmHg 69%
    21:00 +14°C° 0 mm 1 mps 749 mmHg 71%
    22:00 +14°C° 0 mm 1 mps 749 mmHg 72%
    23:00 +13°C° 0 mm 1 mps 749 mmHg 74%

    Day after tomorrow, 18 October, Friday

    Time Temperature Precipitation Wind Pressure Humidity
    00:00 +13°C° 0 mm 1 mps 749 mmHg 76%
    01:00 +13°C° 0 mm 1 mps 749 mmHg 78%
    02:00 +13°C° 0 mm 1 mps 749 mmHg 78%
    03:00 +13°C° 0 mm 1 mps 749 mmHg 78%
    04:00 +13°C° 0 mm 1 mps 749 mmHg 79%
    05:00 +13°C° 0 mm 1 mps 748 mmHg 78%
    06:00 +13°C° 0 mm 1 mps 748 mmHg 78%
    07:00 +13°C° 0 mm 1 mps 748 mmHg 78%
    08:00 +15°C° 0 mm 1 mps 748 mmHg 72%
    09:00 +16°C° 0 mm 1 mps 749 mmHg 66%
    10:00 +19°C° 0 mm 1 mps 749 mmHg 60%
    11:00 +20°C° 0 mm 1 mps 748 mmHg 57%
    12:00 +21°C° 0 mm 1 mps 748 mmHg 54%
    13:00 +22°C° 0 mm 1 mps 748 mmHg 51%
    14:00 +21°C° 0 mm 1 mps 748 mmHg 54%
    15:00 +21°C° 0 mm 1 mps 748 mmHg 58%
    16:00 +20°C° 0 mm 1 mps 747 mmHg 61%
    17:00 +19°C° 0 mm 1 mps 747 mmHg 65%
    18:00 +18°C° 0 mm 1 mps 747 mmHg 68%
    19:00 +16°C° 0 mm 1 mps 747 mmHg 71%
    20:00 +16°C° 0 mm 1 mps 747 mmHg 71%
    21:00 +16°C° 0 mm 1 mps 747 mmHg 71%
    22:00 +15°C° 0 mm 1 mps 747 mmHg 71%
    23:00 +15°C° 0 mm 1 mps 747 mmHg 73%

    19 October, Saturday

    Time Temperature Precipitation Wind Pressure Humidity
    00:00 +15°C° 0 mm 1 mps 747 mmHg 75%
    01:00 +14°C° 0 mm 1 mps 746 mmHg 77%
    02:00 +14°C° 0 mm 1 mps 746 mmHg 79%
    03:00 +14°C° 0 mm 1 mps 746 mmHg 81%
    04:00 +13°C° 0 mm 2 mps 745 mmHg 83%
    05:00 +13°C° 0 mm 2 mps 745 mmHg 82%
    06:00 +13°C° 0 mm 2 mps 745 mmHg 82%
    07:00 +13°C° 0 mm 2 mps 744 mmHg 81%
    08:00 +14°C° 0 mm 2 mps 744 mmHg 77%
    09:00 +16°C° 0 mm 2 mps 744 mmHg 72%
    10:00 +17°C° 0 mm 2 mps 744 mmHg 68%
    11:00 +18°C° 0 mm 2 mps 743 mmHg 65%
    12:00 +18°C° 0 mm 2 mps 743 mmHg 63%
    13:00 +19°C° 0 mm 2 mps 743 mmHg 61%
    14:00 +18°C° 0 mm 2 mps 743 mmHg 63%
    15:00 +18°C° 0 mm 2 mps 743 mmHg 65%
    16:00 +19°C° 0 mm 1 mps 742 mmHg 68%
    17:00 +16°C° 0 mm 1 mps 743 mmHg 73%
    18:00 +15°C° 0 mm 1 mps 743 mmHg 78%
    19:00 +14°C° 0 mm 1 mps 743 mmHg 82%
    20:00 +13°C° 0 mm 1 mps 743 mmHg 84%
    21:00 +13°C° 0 mm 1 mps 743 mmHg 85%
    22:00 +13°C° 0 mm 1 mps 743 mmHg 86%
    23:00 +12°C° 0 mm 1 mps 743 mmHg 86%

    20 October, Sunday

    Time Temperature Precipitation Wind Pressure Humidity
    00:00 +12°C° 0 mm 1 mps 743 mmHg 86%
    01:00 +12°C° 0 mm 1 mps 744 mmHg 86%
    02:00 +12°C° 0 mm 1 mps 744 mmHg 86%
    03:00 +12°C° 0 mm 1 mps 744 mmHg 85%
    04:00 +12°C° 0 mm 1 mps 744 mmHg 85%
    05:00 +12°C° 0.3 mm 1 mps 745 mmHg 87%
    06:00 +13°C° 0.3 mm 1 mps 745 mmHg 89%
    07:00 +13°C° 0.3 mm 2 mps 745 mmHg 91%
    08:00 +13°C° 0.5 mm 1 mps 746 mmHg 91%
    09:00 +13°C° 0.5 mm 1 mps 746 mmHg 90%
    10:00 +13°C° 0.5 mm 1 mps 747 mmHg 90%
    11:00 +14°C° 0 mm 1 mps 747 mmHg 84%
    12:00 +15°C° 0 mm 1 mps 747 mmHg 78%
    13:00 +16°C° 0 mm 1 mps 747 mmHg 72%
    14:00 +16°C° 0 mm 1 mps 747 mmHg 74%
    15:00 +15°C° 0 mm 1 mps 747 mmHg 75%
    16:00 +15°C° 0 mm 1 mps 748 mmHg 77%
    17:00 +14°C° 0 mm 1 mps 748 mmHg 81%
    18:00 +13°C° 0 mm 1 mps 748 mmHg 84%
    19:00 +13°C° 0 mm 1 mps 748 mmHg 87%
    20:00 +13°C° 0 mm 1 mps 748 mmHg 87%
    21:00 +13°C° 0 mm 1 mps 748 mmHg 86%
    22:00 +13°C° 0 mm 1 mps 749 mmHg 86%
    23:00 +13°C° 0 mm 1 mps 748 mmHg 86%

    21 October, Monday

    Time Temperature Precipitation Wind Pressure Humidity
    00:00 +13°C° 0 mm 1 mps 748 mmHg 86%
    01:00 +13°C° 0 mm 1 mps 748 mmHg 86%
    02:00 +13°C° 0.1 mm 1 mps 748 mmHg 88%
    03:00 +12°C° 0.1 mm 1 mps 748 mmHg 91%
    04:00 +12°C° 0.1 mm 1 mps 748 mmHg 93%
    05:00 +12°C° 0.1 mm 1 mps 748 mmHg 94%
    06:00 +12°C° 0.1 mm 2 mps 748 mmHg 94%
    07:00 +12°C° 0.1 mm 2 mps 748 mmHg 95%
    08:00 +13°C° 0 mm 2 mps 748 mmHg 95%
    09:00 +13°C° 0 mm 2 mps 748 mmHg 94%
    10:00 +13°C° 0 mm 1 mps 748 mmHg 93%
    11:00 +13°C° 0.1 mm 2 mps 748 mmHg 93%
    12:00 +13°C° 0.1 mm 2 mps 748 mmHg 94%
    13:00 +13°C° 0.1 mm 2 mps 748 mmHg 94%
    14:00 +13°C° 0.1 mm 2 mps 748 mmHg 94%
    15:00 +13°C° 0.1 mm 2 mps 748 mmHg 95%
    16:00 +13°C° 0.1 mm 2 mps 748 mmHg 95%
    17:00 +13°C° 0 mm 2 mps 749 mmHg 95%
    18:00 +13°C° 0 mm 2 mps 749 mmHg 96%
    19:00 +13°C° 0 mm 2 mps 749 mmHg 96%
    20:00 +13°C° 0 mm 2 mps 749 mmHg 96%
    21:00 +12°C° 0 mm 2 mps 749 mmHg 96%
    22:00 +12°C° 0 mm 2 mps 750 mmHg 96%
    23:00 +12°C° 0.1 mm 2 mps 750 mmHg 96%
    Show more